Date,TemperatureHighF,TemperatureAvgF,TemperatureLowF,DewpointHighF,DewpointAvgF,DewpointLowF,HumidityHigh,HumidityAvg,HumidityLow,PressureMaxIn,PressureMinIn,WindSpeedMaxMPH,WindSpeedAvgMPH,GustSpeedMaxMPH,PrecipitationSumIn
2013-7-1,69,66,62,65,62,59,94,88,82,29.94,29.83,15,5,16,0.01
2013-7-2,77,66,60,70,64,59,98,93,78,29.99,29.92,12,2,12,1.18
2013-7-3,80,70,61,69,66,61,99,86,65,30.07,29.98,16,3,16,0.01
2013-7-4,79,69,62,70,66,62,99,91,72,30.11,30.03,7,0,7,0.03
2013-7-5,81,72,65,71,68,64,99,88,69,30.11,30.02,11,1,11,0.00
2013-7-6,74,70,66,70,68,64,99,94,83,30.08,29.99,11,1,11,0.02
2013-7-7,82,72,65,73,68,64,99,88,65,30.07,29.98,11,3,11,0.00
2013-7-8,85,78,70,76,72,68,94,82,71,30.06,29.96,14,4,14,0.00
2013-7-9,88,80,74,78,74,71,92,82,70,30.00,29.90,15,4,16,0.00
2013-7-10,86,78,68,79,73,64,96,85,70,29.92,29.77,35,4,35,0.06
2013-7-11,77,69,59,64,61,57,96,76,57,30.02,29.92,15,3,15,0.00
2013-7-12,78,68,55,65,60,54,99,79,56,30.10,30.01,15,2,15,0.00
2013-7-13,83,71,58,70,64,57,98,81,60,30.12,30.06,11,2,13,0.00
2013-7-14,89,77,65,79,70,63,96,81,60,30.17,30.11,10,1,10,0.00
2013-7-15,89,80,72,75,73,70,97,80,61,30.25,30.17,12,2,12,0.00
2013-7-16,92,80,68,79,74,68,99,82,56,30.30,30.22,5,0,6,0.00
2013-7-17,91,80,70,77,74,70,100,82,58,30.30,30.15,6,1,6,0.00
2013-7-18,92,80,69,80,74,69,99,83,58,30.17,29.97,7,1,8,0.00
2013-7-19,90,82,72,78,74,71,97,80,59,29.99,29.80,16,4,16,0.00
2013-7-20,80,74,68,74,71,67,98,89,82,29.88,29.77,13,3,13,0.15
2013-7-21,85,74,65,75,70,64,99,88,67,29.94,29.84,6,1,6,0.00
2013-7-22,74,71,68,71,69,67,98,95,87,29.87,29.80,8,1,11,0.17
2013-7-23,84,75,63,74,69,58,99,83,64,29.84,29.71,17,9,17,0.00
2013-7-24,72,62,54,60,56,52,95,80,62,30.00,29.84,14,7,14,0.00
2013-7-25,76,63,49,61,55,49,98,78,51,30.09,30.01,10,3,10,0.00
2013-7-26,78,67,53,63,59,52,98,77,55,30.08,29.92,13,5,13,0.00
2013-7-27,75,68,57,66,61,52,98,78,56,29.92,29.80,20,11,20,0.01
2013-7-28,71,62,50,55,53,48,93,73,53,30.02,29.90,23,4,23,0.00
2013-7-29,76,64,52,61,56,50,97,76,53,30.16,30.02,13,2,13,0.00
2013-7-30,78,67,55,66,61,54,97,82,59,30.19,30.08,7,1,7,0.00
2013-7-31,74,68,64,71,66,63,98,95,86,30.08,29.91,7,1,8,0.32